EW4229 Weather Reports


Display with metric or nautical units.
time (UTC)temp
F
wind
direction
speed
MPH
gust
MPH
rain 1hr
in
rain 24hr
in
rain mn
in
humidity
%
barometer
mb
20260906014544 66 28 0.0 1.0 0.00 0.00 0.00 81 1012.4
20260906013044 66 358 0.0 1.0 0.00 0.00 0.00 78 1012.1
20260906011542 67 1 0.0 0.0 0.00 0.00 0.00 78 1012.1
20260906010042 67 1 0.0 1.0 0.00 0.00 0.00 79 1011.9
20260906004542 67 1 0.0 1.0 0.00 0.00 0.00 78 1011.8
20260906003038 68 1 0.0 1.0 0.00 0.00 0.00 77 1011.7
20260906001535 69 1 0.0 1.0 0.00 0.00 0.00 74 1011.5
20260906000034 70 1 0.0 0.0 0.00 0.00 0.00 70 1011.2
20260905234535 70 270 0.0 0.0 0.00 0.00 0.00 74 1011.2
20260905233036 74 283 0.0 3.0 0.00 0.00 0.00 68 1011.1
20260905231534 0 0.0 0.0 0.00 0.00 0.00 1011.0
20260905230030 77 321 0.0 4.0 0.00 0.00 0.00 57 1010.9
20260905224530 77 311 0.0 3.0 0.00 0.00 0.00 56 1010.8
20260905223030 78 318 2.0 4.0 0.00 0.00 0.00 53 1010.8
20260905221527 0 0.0 0.0 0.00 0.00 0.00 1010.7
20260905220027 79 72 0.0 4.0 0.00 0.00 0.00 55 1010.6
20260905214520 79 16 0.0 8.0 0.00 0.00 0.00 55 1010.7
20260905213022 79 346 2.0 8.0 0.00 0.00 0.00 55 1010.6
20260905211519 79 343 4.0 9.0 0.00 0.00 0.00 54 1010.5
20260905210014 78 34 3.0 6.0 0.00 0.00 0.00 63 1010.4
20260905204516 78 313 2.0 10.0 0.00 0.00 0.00 61 1010.6
20260905203016 78 338 5.0 12.0 0.00 0.00 0.00 62 1010.6
20260905201514 78 316 4.0 12.0 0.00 0.00 0.00 63 1010.7
20260905200021 77 11 2.0 11.0 0.00 0.00 0.00 64 1010.8
20260905194513 79 80 3.0 7.0 0.00 0.00 0.00 55 1010.7
20260905193025 78 1 1.0 6.0 0.00 0.00 0.00 59 1010.8
20260905191512 78 359 2.0 8.0 0.00 0.00 0.00 58 1010.8
20260905190014 0 0.0 0.0 0.00 0.00 0.00 1010.9
20260905184508 0 0.0 0.0 0.00 0.00 0.00 1011.0
20260905183001 0 0.0 0.0 0.00 0.00 0.00 1011.1
20260905181557 0 313 2.0 0.0 0.00 0.00 0.00 1011.3
20260905180053 77 336 2.0 6.0 0.00 0.00 0.00 59 1011.3
20260905174558 78 293 3.0 6.0 0.00 0.00 0.00 58 1011.3
20260905173104 78 337 3.0 10.0 0.00 0.00 0.00 57 1011.4
20260905171548 0 0.0 0.0 0.00 0.00 0.00 1011.6
20260905170047 78 276 1.0 6.0 0.00 0.00 0.00 61 1011.7
20260905164542 78 302 3.0 9.0 0.00 0.00 0.00 61 1011.8
20260905163049 77 310 2.0 8.0 0.00 0.00 0.00 63 1011.9
20260905161538 0 0.0 0.0 0.00 0.00 0.00 1012.1
20260905160047 77 326 0.0 6.0 0.00 0.00 0.00 61 1012.2
20260905154541 77 355 1.0 6.0 0.00 0.00 0.00 62 1012.4
20260905153032 76 328 1.0 0.0 0.00 0.00 0.00 1012.3
20260905151528 0 0.0 0.0 0.00 0.00 0.00 1012.3
20260905150027 0 0.0 0.0 0.00 0.00 0.00 1012.4
20260905144538 75 305 0.0 8.0 0.00 0.00 0.00 71 1012.3
20260905143022 75 309 1.0 7.0 0.00 0.00 0.00 71 1012.1
20260905141520 0 0.0 0.0 0.00 0.00 0.00 1011.9
20260905140010 73 20 0.0 4.0 0.00 0.00 0.00 73 1011.9
20260905134515 73 318 1.0 4.0 0.00 0.00 0.00 75 1012.0
20260905133013 72 323 1.0 4.0 0.00 0.00 0.00 75 1012.2
20260905131510 72 315 0.0 3.0 0.00 0.00 0.00 75 1012.2
20260905130009 72 341 0.0 3.0 0.00 0.00 0.00 77 1012.2
20260905124506 72 308 0.0 3.0 0.00 0.00 0.00 76 1011.9
20260905123005 72 353 0.0 1.0 0.00 0.00 0.00 78 1011.8
20260905121503 0 0.0 0.0 0.00 0.00 0.00 1011.9
20260905120100 71 341 0.0 0.0 0.00 0.00 0.00 81 1011.9
20260905114627 71 341 0.0 0.0 0.00 0.00 0.00 81 1011.8
20260905113057 70 18 0.0 0.0 0.00 0.00 0.00 83 1011.5
20260905111556 70 18 0.0 0.0 0.00 0.00 0.00 82 1011.5
20260905110055 70 18 0.0 0.0 0.00 0.00 0.00 82 1011.5
20260905104559 70 18 0.0 0.0 0.00 0.00 0.00 83 1011.2
20260905103058 70 19 0.0 0.0 0.00 0.00 0.00 83 1010.9
20260905101557 70 18 0.0 0.0 0.00 0.00 0.00 85 1011.0
20260905100112 70 19 0.0 0.0 0.00 0.00 0.00 85 1010.7
20260905094605 71 19 0.0 0.0 0.00 0.00 0.00 84 1010.7
20260905093055 70 18 0.0 1.0 0.00 0.00 0.00 84 1010.7
20260905091559 71 18 0.0 0.0 0.00 0.00 0.00 85 1010.5
20260905090048 71 18 0.0 0.0 0.00 0.00 0.00 84 1010.6
20260905084549 71 18 0.0 1.0 0.00 0.00 0.00 83 1010.5
20260905083045 72 6 0.0 1.0 0.00 0.00 0.00 80 1010.6
20260905081544 73 4 0.0 1.0 0.00 0.00 0.00 80 1010.6
20260905080043 73 137 0.0 3.0 0.00 0.00 0.00 79 1010.8
20260905074553 73 327 1.0 3.0 0.00 0.00 0.00 84 1010.8
20260905073057 73 300 0.0 2.0 0.00 0.00 0.00 89 1010.8
20260905071539 0 0.0 0.0 0.00 0.00 0.00 1010.8
20260905070036 73 285 0.0 2.0 0.00 0.00 0.00 91 1010.8
20260905064533 73 285 0.0 3.0 0.00 0.00 0.00 91 1010.8
20260905063032 73 288 0.0 3.0 0.00 0.00 0.00 90 1010.9
20260905061529 0 0.0 0.0 0.00 0.00 0.00 1010.9
20260905060025 0 304 0.0 0.0 0.00 0.00 0.00 1010.9
20260905054521 0 0.0 0.0 0.00 0.00 0.00 1011.0
20260905053017 75 351 0.0 3.0 0.00 0.00 0.00 85 1011.2
20260905051516 74 301 0.0 3.0 0.00 0.00 0.00 87 1011.5
20260905050018 74 320 0.0 1.0 0.00 0.00 0.00 87 1011.7
20260905044514 75 347 0.0 1.0 0.00 0.00 0.00 87 1011.5
20260905043014 75 2 0.0 2.0 0.00 0.00 0.00 87 1011.4
20260905041508 73 281 0.0 0.0 0.00 0.00 0.00 93 1011.4
20260905040014 74 281 0.0 0.0 0.00 0.00 0.00 92 1011.6
20260905034507 75 311 0.0 0.0 0.00 0.00 0.00 86 1011.5
20260905033019 76 311 0.0 0.0 0.00 0.00 0.00 84 1011.5
20260905031506 76 311 0.0 0.0 0.00 0.00 0.00 85 1011.4
20260905030007 77 309 0.0 0.0 0.00 0.00 0.00 83 1011.3
20260905024506 78 315 0.0 2.0 0.00 0.00 0.00 80 1011.3
20260905023027 77 309 0.0 2.0 0.00 0.00 0.00 81 1011.2
20260905021506 77 318 0.0 0.0 0.00 0.00 0.00 82 1011.1
20260905020009 77 326 0.0 2.0 0.00 0.00 0.00 81 1011.0